Hourly Data Report for February 24, 2003

TORONTO CITY
ONTARIO

43°40'00.000" N
79°24'00.000" W
112.50 m
6158355
71508
XTO

Download Data

Hourly Data (February 2003)
Hourly Data Report for February 24, 2003
TIME
LST
Temp Definition
°C
Dew Point Definition
°C
Rel Hum Definition
%
Precip. Amount Definition
mm

Wind Dir Definition
10's deg

Wind Spd Definition
km/h
Visibility Definition
km
Stn Press Definition
kPa
Hmdx Definition


Wind Chill Definition


Weather Definition


00:00 -10.1 -16.7 58   LegendMM LegendMM LegendMM 100.53     LegendNANA
01:00 -10.6 -16.8 60   LegendMM LegendMM LegendMM 100.59     LegendNANA
02:00 -11.2 -17.3 61   LegendMM LegendMM LegendMM 100.56     LegendNANA
03:00 -11.7 -18.6 57   LegendMM LegendMM LegendMM 100.56     LegendNANA
04:00 -11.7 -19.0 55   LegendMM LegendMM LegendMM 100.61     LegendNANA
05:00 -12.1 -20.0 52   LegendMM LegendMM LegendMM 100.66     LegendNANA
06:00 -12.3 -19.6 54   LegendMM LegendMM LegendMM 100.66     LegendNANA
07:00 -12.8 -19.8 56   LegendMM LegendMM LegendMM 100.69     LegendNANA
08:00 -12.5 -19.6 55   LegendMM LegendMM LegendMM 100.70     LegendNANA
09:00 -12.0 -19.5 54   LegendMM LegendMM LegendMM 100.61     LegendNANA
10:00 -11.2 -18.8 53   LegendMM LegendMM LegendMM 100.56     LegendNANA
11:00 -9.9 -17.8 52   LegendMM LegendMM LegendMM 100.53     LegendNANA
12:00 -8.0 -16.0 53   LegendMM LegendMM LegendMM 100.51     LegendNANA
13:00 -8.8 -13.0 72   LegendMM LegendMM LegendMM 100.47     LegendNANA
14:00 -7.7 -12.0 71   LegendMM LegendMM LegendMM 100.43     LegendNANA
15:00 -6.7 -10.6 74   LegendMM LegendMM LegendMM 100.42     LegendNANA
16:00 -6.6 -11.2 70   LegendMM LegendMM LegendMM 100.44     LegendNANA
17:00 -7.0 -10.1 79   LegendMM LegendMM LegendMM 100.55     LegendNANA
18:00 -7.0 -9.2 84   LegendMM LegendMM LegendMM 100.66     LegendNANA
19:00 -6.7 -8.2 89   LegendMM LegendMM LegendMM 100.65     LegendNANA
20:00 -8.3 -10.2 86   LegendMM LegendMM LegendMM 100.71     LegendNANA
21:00 -10.1 -12.2 85   LegendMM LegendMM LegendMM 100.79     LegendNANA
22:00 -11.3 -13.6 83   LegendMM LegendMM LegendMM 100.92     LegendNANA
23:00 -11.9 -15.0 78   LegendMM LegendMM LegendMM 100.96     LegendNANA

Notes on Data Quality.

Legend

  • E = Estimated
  • M = Missing
  • NA = Not Available*
  • [empty] = Indicates an unobserved value
Date modified: